| time (UTC) | temp F | wind direction | speed MPH | gust MPH | rain 1hr in | rain 24hr in | rain mn in | humidity % | barometer mb |
| 20260905203248 | 0 | 207 | 2.0 | 2.0 | 0.00 | 0.00 | 0.00 | 1061.0 | |
| 20260905202744 | 0 | 338 | 3.0 | 5.0 | 0.00 | 0.00 | 0.00 | 1061.1 | |
| 20260905202238 | 0 | 216 | 1.0 | 6.0 | 0.00 | 0.00 | 0.00 | 1061.1 | |
| 20260905201734 | 0 | 96 | 1.0 | 2.0 | 0.00 | 0.00 | 0.00 | 1061.3 | |
| 20260905201229 | 0 | 345 | 2.0 | 3.0 | 0.00 | 0.00 | 0.00 | 1061.3 | |
| 20260905200724 | 0 | 78 | 2.0 | 3.0 | 0.00 | 0.00 | 0.00 | 1061.4 | |
| 20260905200220 | 0 | 318 | 3.0 | 5.0 | 0.00 | 0.00 | 0.00 | 1061.3 | |
| 20260905195717 | 0 | 68 | 1.0 | 5.0 | 0.00 | 0.00 | 0.00 | 1061.7 | |
| 20260905195212 | 0 | 89 | 2.0 | 3.0 | 0.00 | 0.00 | 0.00 | 1061.3 | |
| 20260905194708 | 0 | 84 | 3.0 | 3.0 | 0.00 | 0.00 | 0.00 | 1061.4 | |
| 20260905194208 | 0 | 149 | 2.0 | 5.0 | 0.00 | 0.00 | 0.00 | 1061.5 | |
| 20260905193702 | 0 | 61 | 1.0 | 2.0 | 0.00 | 0.00 | 0.00 | 1061.4 | |
| 20260905193157 | 0 | 156 | 0.0 | 3.0 | 0.00 | 0.00 | 0.00 | 1061.6 | |
| 20260905192653 | 0 | 15 | 3.0 | 5.0 | 0.00 | 0.00 | 0.00 | 1061.6 | |
| 20260905192149 | 0 | 115 | 1.0 | 1.0 | 0.00 | 0.00 | 0.00 | 1061.8 | |
| 20260905191648 | 0 | 141 | 1.0 | 2.0 | 0.00 | 0.00 | 0.00 | 1061.8 | |
| 20260905191146 | 0 | 122 | 1.0 | 2.0 | 0.00 | 0.00 | 0.00 | 1061.9 | |
| 20260905190644 | 0 | 157 | 1.0 | 2.0 | 0.00 | 0.00 | 0.00 | 1062.1 | |
| 20260905190138 | 0 | 171 | 2.0 | 5.0 | 0.00 | 0.00 | 0.00 | 1062.1 | |
| 20260905185638 | 0 | 30 | 1.0 | 5.0 | 0.00 | 0.00 | 0.00 | 1062.2 | |
| 20260905185138 | 0 | 14 | 3.0 | 5.0 | 0.00 | 0.00 | 0.00 | 1062.2 | |
| 20260905184632 | 0 | 269 | 2.0 | 2.0 | 0.00 | 0.00 | 0.00 | 1062.2 | |
| 20260905184131 | 0 | 241 | 3.0 | 5.0 | 0.00 | 0.00 | 0.00 | 1062.4 | |
| 20260905183631 | 0 | 97 | 1.0 | 3.0 | 0.00 | 0.00 | 0.00 | 1062.3 | |
| 20260905183126 | 0 | 114 | 1.0 | 2.0 | 0.00 | 0.00 | 0.00 | 1062.5 | |
| 20260905182625 | 0 | 265 | 2.0 | 3.0 | 0.00 | 0.00 | 0.00 | 1062.5 | |
| 20260905182125 | 0 | 193 | 3.0 | 5.0 | 0.00 | 0.00 | 0.00 | 1062.3 | |
| 20260905181620 | 0 | 144 | 2.0 | 5.0 | 0.00 | 0.00 | 0.00 | 1062.6 | |
| 20260905181119 | 0 | 286 | 3.0 | 5.0 | 0.00 | 0.00 | 0.00 | 1062.6 | |
| 20260905180614 | 0 | 34 | 3.0 | 5.0 | 0.00 | 0.00 | 0.00 | 1062.6 | |
| 20260905180110 | 0 | 154 | 1.0 | 2.0 | 0.00 | 0.00 | 0.00 | 1062.7 | |
| 20260905175609 | 0 | 83 | 1.0 | 3.0 | 0.00 | 0.00 | 0.00 | 1062.9 | |
| 20260905175104 | 0 | 128 | 1.0 | 3.0 | 0.00 | 0.00 | 0.00 | 1062.9 | |
| 20260905174600 | 0 | 328 | 5.0 | 6.0 | 0.00 | 0.00 | 0.00 | 1062.9 | |
| 20260905174055 | 0 | 199 | 1.0 | 2.0 | 0.00 | 0.00 | 0.00 | 1063.1 | |
| 20260905173551 | 0 | 152 | 0.0 | 2.0 | 0.00 | 0.00 | 0.00 | 1063.1 | |
| 20260905173046 | 0 | 155 | 1.0 | 1.0 | 0.00 | 0.00 | 0.00 | 1063.0 | |
| 20260905172545 | 0 | 127 | 1.0 | 2.0 | 0.00 | 0.00 | 0.00 | 1063.3 | |
| 20260905172040 | 0 | 10 | 3.0 | 3.0 | 0.00 | 0.00 | 0.00 | 1063.4 | |
| 20260905171537 | 0 | 62 | 4.0 | 5.0 | 0.00 | 0.00 | 0.00 | 1063.5 | |
| 20260905171033 | 0 | 87 | 1.0 | 2.0 | 0.00 | 0.00 | 0.00 | 1063.3 | |
| 20260905170529 | 0 | 118 | 2.0 | 3.0 | 0.00 | 0.00 | 0.00 | 1063.6 | |
| 20260905170024 | 0 | 355 | 3.0 | 6.0 | 0.00 | 0.00 | 0.00 | 1063.3 | |
| 20260905165518 | 0 | 81 | 2.0 | 3.0 | 0.00 | 0.00 | 0.00 | 1063.7 | |
| 20260905165013 | 0 | 194 | 1.0 | 3.0 | 0.00 | 0.00 | 0.00 | 1063.7 | |
| 20260905164508 | 0 | 125 | 3.0 | 5.0 | 0.00 | 0.00 | 0.00 | 1063.6 | |
| 20260905164003 | 0 | 12 | 4.0 | 5.0 | 0.00 | 0.00 | 0.00 | 1063.7 | |
| 20260905163459 | 0 | 247 | 3.0 | 3.0 | 0.00 | 0.00 | 0.00 | 1063.8 | |
| 20260905162955 | 0 | 356 | 1.0 | 3.0 | 0.00 | 0.00 | 0.00 | 1063.7 | |
| 20260905162450 | 0 | 349 | 1.0 | 2.0 | 0.00 | 0.00 | 0.00 | 1063.6 | |
| 20260905161945 | 0 | 101 | 3.0 | 6.0 | 0.00 | 0.00 | 0.00 | 1064.0 | |
| 20260905161444 | 0 | 119 | 0.0 | 3.0 | 0.00 | 0.00 | 0.00 | 1063.8 | |
| 20260905160942 | 0 | 89 | 1.0 | 2.0 | 0.00 | 0.00 | 0.00 | 1063.7 | |
| 20260905160436 | 0 | 305 | 3.0 | 3.0 | 0.00 | 0.00 | 0.00 | 1063.9 | |
| 20260905155936 | 0 | 131 | 1.0 | 5.0 | 0.00 | 0.00 | 0.00 | 1063.9 | |
| 20260905155431 | 0 | 121 | 2.0 | 3.0 | 0.00 | 0.00 | 0.00 | 1063.9 | |
| 20260905154930 | 0 | 283 | 2.0 | 3.0 | 0.00 | 0.00 | 0.00 | 1064.0 | |
| 20260905154425 | 0 | 73 | 2.0 | 3.0 | 0.00 | 0.00 | 0.00 | 1063.9 | |
| 20260905153920 | 0 | 143 | 1.0 | 2.0 | 0.00 | 0.00 | 0.00 | 1063.8 | |
| 20260905153417 | 0 | 97 | 1.0 | 3.0 | 0.00 | 0.00 | 0.00 | 1063.8 | |
| 20260905152916 | 0 | 255 | 3.0 | 5.0 | 0.00 | 0.00 | 0.00 | 1063.7 | |
| 20260905152415 | 0 | 193 | 1.0 | 3.0 | 0.00 | 0.00 | 0.00 | 1063.8 | |
| 20260905151910 | 0 | 95 | 3.0 | 5.0 | 0.00 | 0.00 | 0.00 | 1063.9 | |
| 20260905151406 | 0 | 142 | 0.0 | 2.0 | 0.00 | 0.00 | 0.00 | 1063.7 | |
| 20260905150901 | 0 | 296 | 2.0 | 2.0 | 0.00 | 0.00 | 0.00 | 1063.8 | |
| 20260905150401 | 0 | 139 | 2.0 | 5.0 | 0.00 | 0.00 | 0.00 | 1063.7 | |
| 20260905145858 | 0 | 221 | 2.0 | 5.0 | 0.00 | 0.00 | 0.00 | 1063.5 | |
| 20260905145357 | 0 | 144 | 1.0 | 2.0 | 0.00 | 0.00 | 0.00 | 1063.8 | |
| 20260905144852 | 0 | 16 | 4.0 | 5.0 | 0.00 | 0.00 | 0.00 | 1063.6 | |
| 20260905144347 | 0 | 158 | 2.0 | 3.0 | 0.00 | 0.00 | 0.00 | 1063.5 | |
| 20260905143845 | 0 | 274 | 4.0 | 5.0 | 0.00 | 0.00 | 0.00 | 1063.5 | |
| 20260905143340 | 0 | 207 | 4.0 | 5.0 | 0.00 | 0.00 | 0.00 | 1063.5 | |
| 20260905142839 | 0 | 253 | 2.0 | 7.0 | 0.00 | 0.00 | 0.00 | 1063.4 | |
| 20260905142338 | 0 | 290 | 2.0 | 6.0 | 0.00 | 0.00 | 0.00 | 1063.4 | |
| 20260905141834 | 0 | 182 | 2.0 | 2.0 | 0.00 | 0.00 | 0.00 | 1063.5 | |
| 20260905141329 | 0 | 212 | 1.0 | 3.0 | 0.00 | 0.00 | 0.00 | 1063.5 | |
| 20260905140825 | 0 | 182 | 1.0 | 2.0 | 0.00 | 0.00 | 0.00 | 1063.6 | |
| 20260905140320 | 0 | 95 | 1.0 | 2.0 | 0.00 | 0.00 | 0.00 | 1063.5 | |
| 20260905135818 | 0 | 161 | 2.0 | 6.0 | 0.00 | 0.00 | 0.00 | 1063.7 | |
| 20260905135314 | 0 | 155 | 1.0 | 2.0 | 0.00 | 0.00 | 0.00 | 1063.5 | |
| 20260905134809 | 0 | 149 | 1.0 | 3.0 | 0.00 | 0.00 | 0.00 | 1063.3 | |
| 20260905134302 | 0 | 214 | 1.0 | 6.0 | 0.00 | 0.00 | 0.00 | 1063.4 | |
| 20260905133757 | 0 | 138 | 1.0 | 3.0 | 0.00 | 0.00 | 0.00 | 1063.5 | |
| 20260905133253 | 0 | 213 | 1.0 | 6.0 | 0.00 | 0.00 | 0.00 | 1063.6 | |
| 20260905132752 | 0 | 252 | 2.0 | 2.0 | 0.00 | 0.00 | 0.00 | 1063.5 | |
| 20260905132248 | 0 | 160 | 1.0 | 3.0 | 0.00 | 0.00 | 0.00 | 1063.4 | |
| 20260905131742 | 0 | 220 | 1.0 | 2.0 | 0.00 | 0.00 | 0.00 | 1063.3 | |
| 20260905131237 | 0 | 142 | 1.0 | 3.0 | 0.00 | 0.00 | 0.00 | 1063.3 | |
| 20260905130732 | 0 | 183 | 1.0 | 2.0 | 0.00 | 0.00 | 0.00 | 1063.1 | |
| 20260905130231 | 0 | 178 | 1.0 | 1.0 | 0.00 | 0.00 | 0.00 | 1063.0 | |
| 20260905125727 | 0 | 147 | 0.0 | 1.0 | 0.00 | 0.00 | 0.00 | 1063.1 | |
| 20260905125221 | 0 | 151 | 0.0 | 1.0 | 0.00 | 0.00 | 0.00 | 1063.0 | |
| 20260905124718 | 0 | 154 | 0.0 | 1.0 | 0.00 | 0.00 | 0.00 | 1063.3 | |
| 20260905124214 | 0 | 146 | 0.0 | 1.0 | 0.00 | 0.00 | 0.00 | 1062.8 | |
| 20260905123708 | 0 | 149 | 0.0 | 1.0 | 0.00 | 0.00 | 0.00 | 1062.9 | |
| 20260905123206 | 0 | 147 | 0.0 | 0.0 | 0.00 | 0.00 | 0.00 | 1062.8 | |
| 20260905122705 | 0 | 146 | 0.0 | 1.0 | 0.00 | 0.00 | 0.00 | 1062.9 | |
| 20260905122159 | 0 | 148 | 0.0 | 0.0 | 0.00 | 0.00 | 0.00 | 1062.8 | |
| 20260905121654 | 0 | 151 | 0.0 | 1.0 | 0.00 | 0.00 | 0.00 | 1062.8 | |
| 20260905121150 | 0 | 148 | 0.0 | 0.0 | 0.00 | 0.00 | 0.00 | 1062.8 | |
| 20260905120649 | 0 | 147 | 0.0 | 1.0 | 0.00 | 0.00 | 0.00 | 1062.7 | |
| 20260905120143 | 0 | 141 | 0.0 | 2.0 | 0.00 | 0.00 | 0.00 | 1062.6 | |
| 20260905115638 | 0 | 159 | 1.0 | 1.0 | 0.00 | 0.00 | 0.00 | 1062.7 | |
| 20260905115133 | 0 | 146 | 0.0 | 1.0 | 0.00 | 0.00 | 0.00 | 1062.7 | |
| 20260905114632 | 0 | 149 | 0.0 | 1.0 | 0.00 | 0.00 | 0.00 | 1062.5 | |
| 20260905114131 | 0 | 145 | 0.0 | 1.0 | 0.00 | 0.00 | 0.00 | 1062.4 | |
| 20260905113626 | 0 | 147 | 0.0 | 1.0 | 0.00 | 0.00 | 0.00 | 1062.7 | |
| 20260905113121 | 0 | 156 | 0.0 | 1.0 | 0.00 | 0.00 | 0.00 | 1062.5 | |
| 20260905112618 | 0 | 147 | 0.0 | 0.0 | 0.00 | 0.00 | 0.00 | 1062.5 | |
| 20260905112112 | 0 | 151 | 0.0 | 1.0 | 0.00 | 0.00 | 0.00 | 1062.5 | |
| 20260905111611 | 0 | 144 | 0.0 | 1.0 | 0.00 | 0.00 | 0.00 | 1062.6 | |
| 20260905111111 | 0 | 147 | 0.0 | 1.0 | 0.00 | 0.00 | 0.00 | 1062.3 | |
| 20260905110610 | 0 | 150 | 0.0 | 1.0 | 0.00 | 0.00 | 0.00 | 1062.4 | |
| 20260905110105 | 0 | 159 | 1.0 | 2.0 | 0.00 | 0.00 | 0.00 | 1062.3 | |
| 20260905105600 | 0 | 146 | 0.0 | 1.0 | 0.00 | 0.00 | 0.00 | 1062.3 | |
| 20260905105054 | 0 | 148 | 0.0 | 0.0 | 0.00 | 0.00 | 0.00 | 1062.4 | |
| 20260905104550 | 0 | 147 | 0.0 | 0.0 | 0.00 | 0.00 | 0.00 | 1062.4 | |
| 20260905104049 | 0 | 146 | 0.0 | 0.0 | 0.00 | 0.00 | 0.00 | 1062.4 | |
| 20260905103545 | 0 | 142 | 0.0 | 0.0 | 0.00 | 0.00 | 0.00 | 1062.5 | |
| 20260905103041 | 0 | 146 | 0.0 | 0.0 | 0.00 | 0.00 | 0.00 | 1062.4 | |
| 20260905102536 | 0 | 146 | 0.0 | 0.0 | 0.00 | 0.00 | 0.00 | 1062.5 | |
| 20260905102033 | 0 | 146 | 0.0 | 0.0 | 0.00 | 0.00 | 0.00 | 1062.5 | |
| 20260905101530 | 0 | 147 | 0.0 | 0.0 | 0.00 | 0.00 | 0.00 | 1062.7 | |
| 20260905101029 | 0 | 144 | 0.0 | 0.0 | 0.00 | 0.00 | 0.00 | 1062.3 | |
| 20260905100525 | 0 | 149 | 0.0 | 0.0 | 0.00 | 0.00 | 0.00 | 1062.7 | |
| 20260905100020 | 0 | 148 | 0.0 | 0.0 | 0.00 | 0.00 | 0.00 | 1062.7 | |
| 20260905095514 | 0 | 145 | 0.0 | 0.0 | 0.00 | 0.00 | 0.00 | 1062.6 | |
| 20260905095009 | 0 | 148 | 0.0 | 0.0 | 0.00 | 0.00 | 0.00 | 1062.7 | |
| 20260905094504 | 0 | 146 | 0.0 | 0.0 | 0.00 | 0.00 | 0.00 | 1062.3 | |
| 20260905094003 | 0 | 148 | 0.0 | 1.0 | 0.00 | 0.00 | 0.00 | 1062.4 | |
| 20260905093458 | 0 | 147 | 0.0 | 1.0 | 0.00 | 0.00 | 0.00 | 1062.6 | |
| 20260905092954 | 0 | 153 | 0.0 | 1.0 | 0.00 | 0.00 | 0.00 | 1062.5 | |
| 20260905092449 | 0 | 151 | 0.0 | 1.0 | 0.00 | 0.00 | 0.00 | 1062.3 | |
| 20260905091944 | 0 | 156 | 0.0 | 1.0 | 0.00 | 0.00 | 0.00 | 1062.4 | |
| 20260905091439 | 0 | 160 | 1.0 | 1.0 | 0.00 | 0.00 | 0.00 | 1062.2 | |
| 20260905090938 | 0 | 146 | 1.0 | 1.0 | 0.00 | 0.00 | 0.00 | 1062.2 | |
| 20260905090434 | 0 | 145 | 0.0 | 1.0 | 0.00 | 0.00 | 0.00 | 1062.1 | |
| 20260905085932 | 0 | 146 | 0.0 | 1.0 | 0.00 | 0.00 | 0.00 | 1062.0 | |
| 20260905085426 | 0 | 145 | 0.0 | 1.0 | 0.00 | 0.00 | 0.00 | 1062.2 | |
| 20260905084923 | 0 | 150 | 0.0 | 1.0 | 0.00 | 0.00 | 0.00 | 1062.2 | |
| 20260905084422 | 0 | 153 | 0.0 | 1.0 | 0.00 | 0.00 | 0.00 | 1062.0 | |
| 20260905083917 | 0 | 158 | 0.0 | 1.0 | 0.00 | 0.00 | 0.00 | 1062.0 | |
| 20260905083412 | 0 | 154 | 1.0 | 1.0 | 0.00 | 0.00 | 0.00 | 1062.1 | |
| 20260905082908 | 0 | 164 | 1.0 | 1.0 | 0.00 | 0.00 | 0.00 | 1062.0 | |
| 20260905082404 | 0 | 148 | 0.0 | 1.0 | 0.00 | 0.00 | 0.00 | 1062.0 | |
| 20260905081858 | 0 | 144 | 1.0 | 1.0 | 0.00 | 0.00 | 0.00 | 1061.9 | |
| 20260905081353 | 0 | 165 | 1.0 | 1.0 | 0.00 | 0.00 | 0.00 | 1061.8 | |
| 20260905080852 | 0 | 155 | 0.0 | 1.0 | 0.00 | 0.00 | 0.00 | 1062.0 | |
| 20260905080346 | 0 | 149 | 1.0 | 1.0 | 0.00 | 0.00 | 0.00 | 1061.9 | |
| 20260905075845 | 0 | 150 | 1.0 | 1.0 | 0.00 | 0.00 | 0.00 | 1061.9 | |
| 20260905075339 | 0 | 161 | 1.0 | 1.0 | 0.00 | 0.00 | 0.00 | 1062.1 | |
| 20260905074838 | 0 | 167 | 1.0 | 2.0 | 0.00 | 0.00 | 0.00 | 1061.9 | |
| 20260905074329 | 0 | 154 | 0.0 | 1.0 | 0.00 | 0.00 | 0.00 | 1062.0 | |
| 20260905073825 | 0 | 150 | 0.0 | 1.0 | 0.00 | 0.00 | 0.00 | 1061.9 | |
| 20260905073320 | 0 | 158 | 1.0 | 1.0 | 0.00 | 0.00 | 0.00 | 1062.1 | |
| 20260905072820 | 0 | 161 | 0.0 | 1.0 | 0.00 | 0.00 | 0.00 | 1062.2 | |
| 20260905072315 | 0 | 156 | 0.0 | 1.0 | 0.00 | 0.00 | 0.00 | 1062.2 | |
| 20260905071811 | 0 | 152 | 1.0 | 2.0 | 0.00 | 0.00 | 0.00 | 1062.3 | |
| 20260905071308 | 0 | 167 | 1.0 | 1.0 | 0.00 | 0.00 | 0.00 | 1062.4 | |
| 20260905070802 | 0 | 164 | 1.0 | 2.0 | 0.00 | 0.00 | 0.00 | 1062.4 | |
| 20260905070258 | 0 | 160 | 1.0 | 2.0 | 0.00 | 0.00 | 0.00 | 1062.5 | |
| 20260905065757 | 0 | 146 | 1.0 | 2.0 | 0.00 | 0.00 | 0.00 | 1062.3 | |
| 20260905065250 | 0 | 147 | 1.0 | 1.0 | 0.00 | 0.00 | 0.00 | 1062.6 | |
| 20260905064746 | 0 | 140 | 3.0 | 5.0 | 0.00 | 0.00 | 0.00 | 1062.6 | |
| 20260905064241 | 0 | 150 | 0.0 | 1.0 | 0.00 | 0.00 | 0.00 | 1062.7 | |
| 20260905063739 | 0 | 158 | 1.0 | 1.0 | 0.00 | 0.00 | 0.00 | 1062.4 | |
| 20260905063235 | 0 | 148 | 1.0 | 1.0 | 0.00 | 0.00 | 0.00 | 1062.3 | |
| 20260905062726 | 0 | 152 | 1.0 | 2.0 | 0.00 | 0.00 | 0.00 | 1062.6 | |
| 20260905062225 | 0 | 147 | 1.0 | 1.0 | 0.00 | 0.00 | 0.00 | 1062.4 | |
| 20260905061720 | 0 | 154 | 1.0 | 1.0 | 0.00 | 0.00 | 0.00 | 1062.5 | |
| 20260905061215 | 0 | 144 | 1.0 | 1.0 | 0.00 | 0.00 | 0.00 | 1062.5 | |
| 20260905060714 | 0 | 149 | 0.0 | 2.0 | 0.00 | 0.00 | 0.00 | 1062.6 | |
| 20260905060211 | 0 | 163 | 1.0 | 2.0 | 0.00 | 0.00 | 0.00 | 1062.3 | |
| 20260905055709 | 0 | 159 | 1.0 | 2.0 | 0.00 | 0.00 | 0.00 | 1062.3 | |
| 20260905055205 | 0 | 148 | 1.0 | 3.0 | 0.00 | 0.00 | 0.00 | 1062.3 | |
| 20260905054700 | 0 | 180 | 2.0 | 2.0 | 0.00 | 0.00 | 0.00 | 1062.5 | |
| 20260905054156 | 0 | 137 | 1.0 | 3.0 | 0.00 | 0.00 | 0.00 | 1062.3 | |
| 20260905053655 | 0 | 175 | 2.0 | 2.0 | 0.00 | 0.00 | 0.00 | 1062.4 | |
| 20260905053150 | 0 | 162 | 1.0 | 3.0 | 0.00 | 0.00 | 0.00 | 1062.3 | |
| 20260905052645 | 0 | 159 | 1.0 | 6.0 | 0.00 | 0.00 | 0.00 | 1062.2 | |
| 20260905052140 | 0 | 162 | 1.0 | 5.0 | 0.00 | 0.00 | 0.00 | 1062.4 | |
| 20260905051635 | 0 | 161 | 3.0 | 5.0 | 0.00 | 0.00 | 0.00 | 1062.3 | |
| 20260905051132 | 0 | 178 | 2.0 | 5.0 | 0.00 | 0.00 | 0.00 | 1062.3 | |
| 20260905050628 | 0 | 165 | 3.0 | 7.0 | 0.00 | 0.00 | 0.00 | 1062.3 | |
| 20260905050124 | 0 | 157 | 2.0 | 3.0 | 0.00 | 0.00 | 0.00 | 1062.1 | |
| 20260905045618 | 0 | 185 | 4.0 | 5.0 | 0.00 | 0.00 | 0.00 | 1062.4 | |
| 20260905045114 | 0 | 178 | 4.0 | 6.0 | 0.00 | 0.00 | 0.00 | 1062.5 | |
| 20260905044614 | 0 | 180 | 4.0 | 5.0 | 0.00 | 0.00 | 0.00 | 1062.3 | |
| 20260905044109 | 0 | 158 | 2.0 | 5.0 | 0.00 | 0.00 | 0.00 | 1062.3 | |
| 20260905043607 | 0 | 182 | 2.0 | 5.0 | 0.00 | 0.00 | 0.00 | 1062.3 | |
| 20260905043103 | 0 | 166 | 3.0 | 6.0 | 0.00 | 0.00 | 0.00 | 1062.3 | |
| 20260905042601 | 0 | 168 | 2.0 | 3.0 | 0.00 | 0.00 | 0.00 | 1062.3 | |
| 20260905042057 | 0 | 142 | 2.0 | 5.0 | 0.00 | 0.00 | 0.00 | 1062.5 | |
| 20260905041552 | 0 | 169 | 2.0 | 5.0 | 0.00 | 0.00 | 0.00 | 1062.3 | |
| 20260905041048 | 0 | 170 | 2.0 | 2.0 | 0.00 | 0.00 | 0.00 | 1062.7 | |
| 20260905040547 | 0 | 160 | 2.0 | 3.0 | 0.00 | 0.00 | 0.00 | 1062.5 | |
| 20260905040046 | 0 | 170 | 3.0 | 3.0 | 0.00 | 0.00 | 0.00 | 1062.6 | |
| 20260905035541 | 0 | 133 | 1.0 | 3.0 | 0.00 | 0.00 | 0.00 | 1062.4 | |
| 20260905035038 | 0 | 160 | 2.0 | 2.0 | 0.00 | 0.00 | 0.00 | 1062.4 | |
| 20260905034534 | 0 | 156 | 1.0 | 2.0 | 0.00 | 0.00 | 0.00 | 1062.6 | |
| 20260905034033 | 0 | 162 | 2.0 | 3.0 | 0.00 | 0.00 | 0.00 | 1062.5 | |
| 20260905033527 | 0 | 155 | 1.0 | 1.0 | 0.00 | 0.00 | 0.00 | 1062.4 | |
| 20260905033023 | 0 | 149 | 2.0 | 2.0 | 0.00 | 0.00 | 0.00 | 1062.5 | |
| 20260905032518 | 0 | 152 | 1.0 | 1.0 | 0.00 | 0.00 | 0.00 | 1062.4 | |
| 20260905032013 | 0 | 151 | 0.0 | 1.0 | 0.00 | 0.00 | 0.00 | 1062.3 | |
| 20260905031509 | 0 | 139 | 0.0 | 0.0 | 0.00 | 0.00 | 0.00 | 1062.4 | |
| 20260905031003 | 0 | 140 | 0.0 | 0.0 | 0.00 | 0.00 | 0.00 | 1062.6 | |
| 20260905030459 | 0 | 141 | 0.0 | 0.0 | 0.00 | 0.00 | 0.00 | 1062.3 | |
| 20260905025957 | 0 | 140 | 0.0 | 0.0 | 0.00 | 0.00 | 0.00 | 1062.4 | |
| 20260905025453 | 0 | 139 | 0.0 | 0.0 | 0.00 | 0.00 | 0.00 | 1062.4 | |
| 20260905024949 | 0 | 138 | 0.0 | 0.0 | 0.00 | 0.00 | 0.00 | 1062.4 | |
| 20260905024449 | 0 | 140 | 0.0 | 0.0 | 0.00 | 0.00 | 0.00 | 1062.1 | |
| 20260905023945 | 0 | 140 | 0.0 | 0.0 | 0.00 | 0.00 | 0.00 | 1062.2 | |
| 20260905023440 | 0 | 139 | 0.0 | 0.0 | 0.00 | 0.00 | 0.00 | 1062.2 | |
| 20260905022939 | 0 | 140 | 0.0 | 0.0 | 0.00 | 0.00 | 0.00 | 1062.2 | |
| 20260905022434 | 0 | 140 | 0.0 | 0.0 | 0.00 | 0.00 | 0.00 | 1062.0 | |
| 20260905021929 | 0 | 139 | 0.0 | 0.0 | 0.00 | 0.00 | 0.00 | 1062.1 | |
| 20260905021424 | 0 | 139 | 0.0 | 0.0 | 0.00 | 0.00 | 0.00 | 1061.7 | |
| 20260905020919 | 0 | 141 | 0.0 | 0.0 | 0.00 | 0.00 | 0.00 | 1061.8 | |
| 20260905020419 | 0 | 138 | 0.0 | 0.0 | 0.00 | 0.00 | 0.00 | 1061.8 | |
| 20260905015919 | 0 | 138 | 0.0 | 0.0 | 0.00 | 0.00 | 0.00 | 1061.7 | |
| 20260905015416 | 0 | 139 | 0.0 | 0.0 | 0.00 | 0.00 | 0.00 | 1061.6 | |
| 20260905014916 | 0 | 137 | 0.0 | 0.0 | 0.00 | 0.00 | 0.00 | 1061.4 | |
| 20260905014411 | 0 | 137 | 0.0 | 0.0 | 0.00 | 0.00 | 0.00 | 1061.4 | |
| 20260905013906 | 0 | 140 | 0.0 | 1.0 | 0.00 | 0.00 | 0.00 | 1061.4 | |
| 20260905013403 | 0 | 147 | 1.0 | 1.0 | 0.00 | 0.00 | 0.00 | 1061.4 | |
| 20260905012857 | 0 | 140 | 0.0 | 0.0 | 0.00 | 0.00 | 0.00 | 1061.4 | |
| 20260905012352 | 0 | 144 | 0.0 | 0.0 | 0.00 | 0.00 | 0.00 | 1061.3 | |
| 20260905011849 | 0 | 147 | 0.0 | 1.0 | 0.00 | 0.00 | 0.00 | 1061.2 | |
| 20260905011344 | 0 | 146 | 0.0 | 0.0 | 0.00 | 0.00 | 0.00 | 1061.2 | |
| 20260905010840 | 0 | 151 | 1.0 | 1.0 | 0.00 | 0.00 | 0.00 | 1061.0 | |
| 20260905010335 | 0 | 144 | 0.0 | 0.0 | 0.00 | 0.00 | 0.00 | 1061.2 | |
| 20260905005831 | 0 | 147 | 0.0 | 2.0 | 0.00 | 0.00 | 0.00 | 1061.1 | |
| 20260905005321 | 0 | 147 | 0.0 | 1.0 | 0.00 | 0.00 | 0.00 | 1060.9 | |
| 20260905004816 | 0 | 143 | 0.0 | 0.0 | 0.00 | 0.00 | 0.00 | 1061.1 | |
| 20260905004311 | 0 | 148 | 1.0 | 1.0 | 0.00 | 0.00 | 0.00 | 1060.8 | |
| 20260905003806 | 0 | 144 | 0.0 | 0.0 | 0.00 | 0.00 | 0.00 | 1061.0 | |
| 20260905003303 | 0 | 144 | 0.0 | 0.0 | 0.00 | 0.00 | 0.00 | 1061.1 | |
| 20260905002758 | 0 | 148 | 0.0 | 0.0 | 0.00 | 0.00 | 0.00 | 1061.2 | |
| 20260905002257 | 0 | 159 | 1.0 | 2.0 | 0.00 | 0.00 | 0.00 | 1061.0 | |
| 20260905001752 | 0 | 176 | 1.0 | 2.0 | 0.00 | 0.00 | 0.00 | 1061.0 | |
| 20260905001251 | 0 | 165 | 2.0 | 2.0 | 0.00 | 0.00 | 0.00 | 1061.1 | |
| 20260905000747 | 0 | 143 | 0.0 | 2.0 | 0.00 | 0.00 | 0.00 | 1061.1 | |
| 20260905000242 | 0 | 165 | 2.0 | 3.0 | 0.00 | 0.00 | 0.00 | 1061.1 | |
| 20260904235737 | 0 | 145 | 1.0 | 3.0 | 0.00 | 0.00 | 0.00 | 1061.1 | |
| 20260904235232 | 0 | 132 | 1.0 | 3.0 | 0.00 | 0.00 | 0.00 | 1061.3 | |
| 20260904234726 | 0 | 168 | 3.0 | 3.0 | 0.00 | 0.00 | 0.00 | 1061.1 | |
| 20260904234222 | 0 | 184 | 3.0 | 6.0 | 0.00 | 0.00 | 0.00 | 1060.9 | |
| 20260904233718 | 0 | 168 | 3.0 | 6.0 | 0.00 | 0.00 | 0.00 | 1061.2 | |
| 20260904233214 | 0 | 156 | 1.0 | 2.0 | 0.00 | 0.00 | 0.00 | 1061.1 | |
| 20260904232711 | 0 | 148 | 2.0 | 6.0 | 0.00 | 0.00 | 0.00 | 1061.0 | |
| 20260904232207 | 0 | 161 | 2.0 | 5.0 | 0.00 | 0.00 | 0.00 | 1061.0 | |
| 20260904231702 | 0 | 162 | 1.0 | 1.0 | 0.00 | 0.00 | 0.00 | 1061.1 | |
| 20260904231157 | 0 | 153 | 1.0 | 1.0 | 0.00 | 0.00 | 0.00 | 1061.2 | |
| 20260904230657 | 0 | 146 | 0.0 | 1.0 | 0.00 | 0.00 | 0.00 | 1061.2 | |
| 20260904230152 | 0 | 138 | 0.0 | 1.0 | 0.00 | 0.00 | 0.00 | 1060.9 | |
| 20260904225650 | 0 | 150 | 0.0 | 1.0 | 0.00 | 0.00 | 0.00 | 1060.9 | |
| 20260904225145 | 0 | 153 | 1.0 | 2.0 | 0.00 | 0.00 | 0.00 | 1061.1 | |
| 20260904224639 | 0 | 171 | 2.0 | 2.0 | 0.00 | 0.00 | 0.00 | 1061.3 | |
| 20260904224138 | 0 | 190 | 3.0 | 3.0 | 0.00 | 0.00 | 0.00 | 1061.1 | |
| 20260904223633 | 0 | 150 | 4.0 | 5.0 | 0.00 | 0.00 | 0.00 | 1061.1 | |
| 20260904223129 | 0 | 139 | 0.0 | 1.0 | 0.00 | 0.00 | 0.00 | 1061.3 | |
| 20260904222624 | 0 | 166 | 0.0 | 2.0 | 0.00 | 0.00 | 0.00 | 1061.0 | |
| 20260904222119 | 0 | 150 | 0.0 | 1.0 | 0.00 | 0.00 | 0.00 | 1061.0 | |
| 20260904221613 | 0 | 151 | 1.0 | 1.0 | 0.00 | 0.00 | 0.00 | 1061.2 | |
| 20260904221107 | 0 | 179 | 3.0 | 3.0 | 0.00 | 0.00 | 0.00 | 1061.0 | |
| 20260904220602 | 0 | 171 | 1.0 | 2.0 | 0.00 | 0.00 | 0.00 | 1061.0 | |
| 20260904220058 | 0 | 189 | 1.0 | 3.0 | 0.00 | 0.00 | 0.00 | 1061.1 | |
| 20260904215558 | 0 | 143 | 1.0 | 2.0 | 0.00 | 0.00 | 0.00 | 1061.1 | |
| 20260904215054 | 0 | 167 | 2.0 | 7.0 | 0.00 | 0.00 | 0.00 | 1061.3 | |
| 20260904214548 | 0 | 184 | 3.0 | 6.0 | 0.00 | 0.00 | 0.00 | 1061.1 | |
| 20260904214039 | 0 | 186 | 1.0 | 3.0 | 0.00 | 0.00 | 0.00 | 1061.3 | |
| 20260904213536 | 0 | 196 | 3.0 | 3.0 | 0.00 | 0.00 | 0.00 | 1061.2 | |
| 20260904213034 | 0 | 246 | 2.0 | 5.0 | 0.00 | 0.00 | 0.00 | 1061.5 | |
| 20260904212532 | 0 | 141 | 1.0 | 6.0 | 0.00 | 0.00 | 0.00 | 1061.5 | |
| 20260904212028 | 0 | 192 | 2.0 | 3.0 | 0.00 | 0.00 | 0.00 | 1061.3 | |
| 20260904211522 | 0 | 209 | 2.0 | 2.0 | 0.00 | 0.00 | 0.00 | 1061.3 | |
| 20260904211018 | 0 | 186 | 2.0 | 2.0 | 0.00 | 0.00 | 0.00 | 1061.3 | |
| 20260904210517 | 0 | 136 | 1.0 | 7.0 | 0.00 | 0.00 | 0.00 | 1061.5 | |
| 20260904210013 | 0 | 113 | 5.0 | 9.0 | 0.00 | 0.00 | 0.00 | 1061.6 | |
| 20260904205508 | 0 | 132 | 2.0 | 6.0 | 0.00 | 0.00 | 0.00 | 1061.7 | |
| 20260904205005 | 0 | 137 | 1.0 | 7.0 | 0.00 | 0.00 | 0.00 | 1061.9 | |
| 20260904204500 | 0 | 163 | 3.0 | 7.0 | 0.00 | 0.00 | 0.00 | 1061.8 | |
| 20260904203956 | 0 | 191 | 3.0 | 3.0 | 0.00 | 0.00 | 0.00 | 1061.8 |